Regional Weather Roundup
Issued by NWS

Home | Current Version | Previous Version | Graphics & Text | Print | Product List | Glossary On
Versions: 1 2 3 4 5 6 7 8 9 10 11 12 13 14 15 16 17 18 19 20 21 22 23 24 25 26 27 28 29 30 31 32 33 34 35 36 37 38 39 40 41 42 43 44 45 46 47 48 49 50
000
ASUS43 KMPX 290610
RWRMN
WEATHER ROUNDUP FOR MINNESOTA
NATIONAL WEATHER SERVICE TWIN CITIES/CHANHASSEN MN
100 AM CDT MON MAY 29 2017


NOTE: "FAIR" INDICATES FEW OR NO CLOUDS BELOW 12,000 FEET WITH NO
SIGNIFICANT WEATHER AND/OR OBSTRUCTIONS TO VISIBILITY. N/A MEANS
CURRENT SKY AND/OR WEATHER CONDITIONS ARE NOT AVAILABLE.

MNZ060>063-068>070-290700-
   Twin Cities Metro

CITY           SKY/WX    TMP DP  RH WIND       PRES   REMARKS
TWIN CITIES    CLOUDY    58  46  64 W8        29.72F
6HR MIN TEMP:  56; 6HR MAX TEMP:  68; 6HR PCP:  0.02;

ST PAUL        CLOUDY    56  50  80 W3        29.72F
CRYSTAL        CLOUDY    56  46  69 W8        29.70F
BLAINE         MOCLDY    55  54  94 SW3       29.71F
LAKEVILLE      PTCLDY    55  45  67 W9G17     29.73F
EDEN PRAIRIE   CLOUDY    59  44  57 W9        29.71F
6HR MIN TEMP:  57; 6HR MAX TEMP:  68; 6HR PCP: TRACE;

SOUTH ST PAUL  CLOUDY    56  48  73 W6        29.72F
LAKE ELMO      DRIZZLE   54  50  87 W9G17     29.72F
$$
MNZ001>005-007-008-013>017-022>024-027-028-290700-
   Northwest Minnesota

CITY           SKY/WX    TMP DP  RH WIND       PRES   REMARKS
BEMIDJI        CLOUDY    49  47  90 NW14      29.71S
HALLOCK        CLOUDY    52  46  82 N17G23    29.77S
ROSEAU         CLOUDY    50  45  81 NW10      29.73R
WARROAD        CLOUDY    50  46  87 NW9       29.71S
THIEF RVR FALL LGT RAIN  49  48  97 NW12      29.76S FOG
CROOKSTON      CLOUDY    52  48  87 NW13      29.78S
FOSSTON        LGT RAIN  46  46 100 W13       29.75F
DETROIT LAKES  CLOUDY    50  45  81 NW15      29.78S
MOORHEAD       CLOUDY    52  48  87 NW10      29.81R
PARK RAPIDS    CLOUDY    51  45  79 NW14      29.73S
MAHNOMEN       CLOUDY    49  46  90 NW12      29.76S
$$
MNZ006-009>011-018-025>026-290700-
   North Central Minnesota

CITY           SKY/WX    TMP DP  RH WIND       PRES   REMARKS
BAUDETTE       PTCLDY    50  46  86 NW16      29.68S
FLAG ISLAND    CLOUDY    50  46  87 NW18      29.68S
INTL FALLS     CLOUDY    52  49  89 NW8       29.63S
6HR MIN TEMP:  52; 6HR MAX TEMP:  57; 6HR PCP:  0.05;

WASKISH        CLOUDY    52  48  87 NW10G18   29.69S
BIG FORK       CLOUDY    52  48  87 W3        29.66S
LONGVILLE      CLOUDY    52  48  87 W8        29.69S
GRAND RAPIDS   CLOUDY    52  49  89 NW8       29.68S
CRANE LAKE     RAIN      52  50  93 CALM      29.62S
ORR            CLOUDY    52  48  87 NW8       29.60S
COOK           LGT RAIN  52  48  87 W5        29.63S
WALKER         CLOUDY    49  47  90 W8G16     29.71S
$$
MNZ012-019>021-037-290700-
   Northeast Minnesota

CITY           SKY/WX    TMP DP  RH WIND       PRES   REMARKS
DULUTH         CLOUDY    51  49  92 W9        29.63S
6HR MIN TEMP:  51; 6HR MAX TEMP:  61; 6HR PCP: TRACE;

ELY            CLOUDY    48  48 100 W5        29.59F
HIBBING        CLOUDY    51  49  92 W8        29.63S
EVELETH        PTCLDY    53  49  87 W6        29.63F
DULUTH HARBOR  CLOUDY    55  52  88 SW9       29.63S
TWO HARBORS    CLOUDY    55  50  82 NW6       29.59S
SILVER BAY     CLOUDY    54  52  94 W3        29.58S
GRAND MARAIS     N/A     41  41 100 E5        29.57F
G MARAIS ARPRT CLOUDY    48  46  93 CALM      29.57F
$$
MNZ029>031-032-039>041-046>048-054>057-064-290700-
   West Central Minnesota

CITY           SKY/WX    TMP DP  RH WIND       PRES   REMARKS
FERGUS FALLS   CLOUDY    52  46  82 NW16      29.78S
WHEATON        CLOUDY    54  46  76 W10       29.83F
MORRIS         CLOUDY    54  48  82 NW8       29.80F
ALEXANDRIA     CLOUDY    52  47  83 NW13      29.78S
ELBOW LAKE     CLOUDY    53  48  84 NW13      29.80F
WADENA         CLOUDY    52  45  76 NW10      29.75S
GLENWOOD       PTCLDY    52  46  82 W17       29.78F
APPLETON       PTCLDY    54  45  71 W10       29.82S
BENSON         CLOUDY    54  46  76 NW10      29.82S
ORTONVILLE     CLEAR     54  45  71 NW10      29.82F
MADISON        PTCLDY    54  46  76 W7        29.84S
WILLMAR        CLOUDY    54  46  76 W14       29.81R
$$
MNZ033>034-036-042>043-049>051-058-059-290700-
   Central Minnesota

CITY           SKY/WX    TMP DP  RH WIND       PRES   REMARKS
ST CLOUD       CLOUDY    53  50  89 NW13      29.73R
6HR MIN TEMP:  50; 6HR MAX TEMP:  65; 6HR PCP:  0.05;

SAUK CENTRE    MOCLDY    51  47  84 NW10G16   29.77S
PAYNESVILLE    PTCLDY    53  46  78 W12       29.77S
AITKIN         CLOUDY    52  48  87 W3        29.68R
PINE RIVER     CLOUDY    52  48  87 W6        29.75S
BRAINERD       CLOUDY    53  47  79 NW14G21   29.72S
STAPLES        CLOUDY    50  46  87 W12G18    29.74S
LONG PRAIRIE   CLOUDY    50  46  87 W12       29.76S
LITTLE FALLS   CLOUDY    52  46  82 W8        29.73S
LITCHFIELD     CLEAR     55  50  82 W15       29.77R
BUFFALO        MOCLDY    56  46  67 W16G25    29.74S
MAPLE LAKE     MOCLDY    56  49  78 W12G18    29.74S
HUTCHINSON     CLOUDY    55  49  79 W20       29.78R
$$
MNZ037-044-045-052-053-290700-
   East Central Minnesota

CITY           SKY/WX    TMP DP  RH WIND       PRES   REMARKS
PRINCETON      CLOUDY    54  52  94 W6        29.72S
MORA           MOCLDY    50  46  87 W5        29.71F
CAMBRIDGE      RAIN      55  46  71 W6        29.69F
RUSH CITY      CLOUDY    53  47  82 W7        29.70S
MOOSE LAKE     MOCLDY    50  45  81 W5        29.65S
HINCKLEY       FAIR      50  48  93 W7        29.68F
CLOQUET        CLOUDY    52  46  82 W7        29.64F
MCGREGOR       CLOUDY    52  48  87 W6        29.68S
$$
MNZ071>073-080-081-089-090-097-098-290700-
   Southwest Minnesota

CITY           SKY/WX    TMP DP  RH WIND       PRES   REMARKS
MONTEVIDEO     CLEAR     54  45  71 NW8       29.82S
CANBY          CLEAR     52  45  75 CALM      29.86S
MARSHALL       CLEAR     53  43  68 W10       29.85S
REDWOOD FALLS  CLEAR     55  43  63 W13       29.81S
OLIVIA         CLEAR     54  45  71 W14       29.80S
PIPESTONE      PTCLDY    54  45  71 NW6       29.87F
WINDOM         PTCLDY    55  45  67 NW18G25   29.84S
WORTHINGTON    MOCLDY    54  46  74 W13       29.87R
JACKSON        PTCLDY    55  45  67 W14G21    29.84F
TRACY          CLEAR     54  45  69 NW9       29.85S
SLAYTON        CLEAR     52  46  79 W10       29.87S
$$
MNZ065>067-074>077-082>085-091>093-290700-
   South Central Minnesota

CITY           SKY/WX    TMP DP  RH WIND       PRES   REMARKS
MANKATO        CLEAR     57  44  62 NW18      29.78S
NEW ULM        CLEAR     55  43  62 NW17G24   29.79S
ST JAMES       PTCLDY    55  46  71 W16G22    29.82S
FAIRMONT       CLEAR     57  44  62 W13       29.82S
GLENCOE        CLOUDY    57  49  75 W13G23    29.75S
FARIBAULT      PTCLDY    57  46  67 W9        29.75F
OWATONNA       CLEAR     55  43  62 W9        29.76F
WASECA         CLEAR     54  41  62 W9        29.78F
ALBERT LEA     CLEAR     59  46  63 W7        29.78F
$$
MNZ078>079-086>088-094>096-290700-
   Southeast Minnesota

CITY           SKY/WX    TMP DP  RH WIND       PRES   REMARKS
ROCHESTER      CLEAR     54  43  66 W12       29.77F
6HR MIN TEMP:  53; 6HR MAX TEMP:  71;

RED WING       CLOUDY    54  52  94 CALM      29.72F
STANTON        PTCLDY    58  45  61 W8        29.73S
DODGE CENTER   CLEAR     55  43  62 W9        29.76F
WINONA         CLEAR     55  48  76 NW5       29.74S
AUSTIN         CLEAR     55  43  62 W7        29.77F
PRESTON        CLEAR     55  42  61 W8        29.77S
$$
ABBREVIATIONS USED IN REMARKS
   TC - TEMPERATURES IN CELSIUS
  WCI - WIND CHILL INDEX
   HX - HEAT INDEX
  VSB - VISIBILITY
$$




USA.gov is the U.S. government's official web portal to all federal, state and local government web resources and services.